"Pseudo-MPEC" for A11hjUq

Created 2025 Jan 16 16:31:02 UT using Find_Orb

Click here for an explanation of pseudo-MPECs

 
 Astrometry: 
     A11hjUq* C2025 01 06b=C$)Ax$:DXvw=Astrometry[]redacted;4oA(FEJSjB.e;^MX[M22
     A11hjUq  C2025 01 06R;clickW*sqNQG%H(b\w)x(B+r`MZKB?STT_o1ii(=t)vC2_%cBDM22
     A11hjUq  C2025 01 06;%fGw'NX,qQ_K+Duq3dS*8]'[o@;2_NA%us`IQmt\RFgQhereu8dM22
     A11hjUq  C2025 01 069lIQO*3x$(0tA8pforFgi-7tTe0,eQ]`jy\%Q1/explanationcgM22

Station data:
(M22) ATLAS South Africa, Sutherland  (S32.380156 E20.810590)  South Africa.
   Observers L. Denneau, R. Siverd, J. Tonry, H. Weiland. Measurers L.
   Denneau, N. Erasmus, A. Fitzsimmons, A. Lawrence, J. Robinson, R. Siverd,
   J. Tonry, H. Weiland. 0.5-m reflector + CCD.

Orbital elements:  A11hjUq
   Perigee 2025 Jan 5.59534 +/- 0.122 TT = 14:17:17 (JD 2460681.09534)
Epoch 2025 Jan  6.0 TT = JDT 2460681.5                           AutoNEOCP
M  92.16432084 +/- 23               (J2000 equator)
n 227.75814676 +/- 118              Peri.  199.82115 +/- 10
a 57317.5421 +/- 19846              Node   119.63743 +/- 1.0
e   0.8192323 +/- 0.0669            Incl.   23.41443 +/- 1.2
P2276.056m/1.581d          H 32.14  G  0.15   U 15.9
q 10361.1580 +/- 7351    Q 104273.926 +/- 32433
From 4 observations 2025 Jan. 6 (32.7 min); mean residual 0".08
Residuals in arcseconds: 
250106 M22  .08-  .03-    250106 M22  .09-  .03-    
250106 M22  .16+  .06+    250106 M22  .01+  .00     

Ephemerides (geocentric):
Date (UTC) HH   RA             Dec           delta  r     elong  mag " sig PA
---- --------  ------------   ------------  ------ ------ -----  --- --------
2025 01 16 17  04 15 55.469   -19 53 36.08   22535 .98379 112.9 15.4  38d  77
2025 01 16 18  05 45 52.378   -13 26 25.78   34825 .98389 133.4 15.7  21d  71
2025 01 16 19  06 28 49.921   -09 25 43.29   45179 .98398 143.2 16.0 851'  68
2025 01 16 20  06 56 01.334   -06 39 29.25   54039 .98405 149.0 16.2 631'  67
2025 01 16 21  07 15 44.629   -04 34 01.99   61736 .98411 152.9 16.4 498'  66
2025 01 16 22  07 31 14.021   -02 53 29.65   68485 .98416 155.6 16.5 411'  65
2025 01 16 23  07 44 03.134   -01 29 26.35   74431 .98421 157.5 16.7 351'  65
2025 01 17 00  07 55 03.620   -00 16 55.88   79677 .98425 158.9 16.8 305'  64
2025 01 17 01  08 04 46.791   +00 47 08.59   84301 .98428 159.9 16.9 270'  63
2025 01 17 02  08 13 33.016   +01 44 51.98   88358 .98431 160.5 16.9 242'  62
2025 01 17 03  08 21 36.302   +02 37 41.78   91894 .98434 160.8 17.0 218'  61
2025 01 17 04  08 29 06.738   +03 26 41.80   94943 .98436 160.9 17.1 196'  60
2025 01 17 05  08 36 11.889   +04 12 40.15   97533 .98438 160.8 17.1 177'  59
2025 01 17 06  08 42 57.643   +04 56 14.26   99683 .98440 160.5 17.2 9465  58
2025 01 17 07  08 49 28.747   +05 37 54.13  101412 .98441 160.2 17.3 8354  56
2025 01 17 08  08 55 49.169   +06 18 04.47  102731 .98442 159.7 17.3 7236  54
2025 01 17 09  09 02 02.348   +06 57 06.24  103651 .98443 159.1 17.3 6090  50
2025 01 17 10  09 08 11.381   +07 35 17.77  104177 .98443 158.4 17.4 4909  45
2025 01 17 11  09 14 19.170   +08 12 55.57  104314 .98443 157.6 17.4 3711  36
2025 01 17 12  09 20 28.550   +08 50 15.03  104061 .98443 156.7 17.4 2610  18
2025 01 17 13  09 26 42.404   +09 27 31.00  103418 .98442 155.8 17.4 2078 159
2025 01 17 14  09 33 03.788   +10 04 58.31  102379 .98441 154.7 17.4 2805 118
2025 01 17 15  09 39 36.072   +10 42 52.34  100939 .98440 153.6 17.4 4444  99
2025 01 17 16  09 46 23.107   +11 21 29.55   99086 .98439 152.4 17.4 6571  89
2025 01 17 17  09 53 29.457   +12 01 08.23   96806 .98437 151.1 17.4 9099  84
2025 01 17 18  10 01 00.712   +12 42 09.32   94083 .98435 149.6 17.4 201'  81
2025 01 17 19  10 09 03.951   +13 24 57.59   90893 .98433 148.1 17.4 259'  79
2025 01 17 20  10 17 48.446   +14 10 03.14   87206 .98430 146.3 17.3 326'  78
2025 01 17 21  10 27 26.786   +14 58 03.63   82987 .98427 144.3 17.3 407'  78
2025 01 17 22  10 38 16.769   +15 49 47.38   78186 .98423 142.0 17.2 505'  77
2025 01 17 23  10 50 44.770   +16 46 17.95   72743 .98419 139.3 17.1 626'  77
2025 01 18 00  11 05 32.197   +17 49 00.33   66573 .98415 136.1 17.0 779'  78
2025 01 18 01  11 23 49.048   +18 59 47.74   59564 .98410 132.1 16.9 980'  78
2025 01 18 02  11 47 46.083   +20 20 58.36   51553 .98404 126.9 16.7  21d  80
2025 01 18 03  12 22 05.377   +21 53 50.14   42297 .98398 119.4 16.5  28d  82
2025 01 18 04  13 19 29.555   +23 26 12.84   31425 .98390 106.9 16.3  40d  87
2025 01 18 05  15 30 42.073   +21 59 18.02   18573 .98382  78.4 16.3  69d 100
2025 01 18 06  22 59 17.109   -17 23 12.04   10887 .98379  42.2 18?? 176d  95
2025 01 18 07  04 22 15.011   -19 31 14.39   23133 .98391 113.2 15.4 101d  75
2025 01 18 08  05 48 26.403   -13 11 26.19   35322 .98402 133.1 15.7  81d  69
2025 01 18 09  06 30 23.430   -09 14 45.42   45595 .98410 142.8 16.0  71d  67
2025 01 18 10  06 57 09.700   -06 30 33.34   54396 .98417 148.7 16.2  65d  66
2025 01 18 11  07 16 40.013   -04 26 15.45   62045 .98423 152.7 16.4  62d  66
2025 01 18 12  07 32 01.816   -02 46 26.38   68753 .98429 155.6 16.5  59d  65
2025 01 18 13  07 44 46.139   -01 22 51.95   74665 .98433 157.7 16.7  57d  65
2025 01 18 14  07 55 43.454   -00 10 41.73   79881 .98437 159.3 16.8  56d  65
2025 01 18 15  08 05 24.470   +00 53 08.02   84478 .98441 160.4 16.8  55d  65
2025 01 18 16  08 14 09.219   +01 50 40.37   88510 .98444 161.2 16.9  55d  65